OPS 4682 DEB, 18691

Orbit data source: Space-Track

OPS 4682 DEB, 18691 is space debris in LEO originally from a launch on Sat, 03 Apr 1965 UTC launched from the Air Force Western Test Range (AFWTR). Debris objects in space refer to the collection of defunct objects orbiting the Earth. Examples of debris include non-operational satellites, rocket bodies, and fragments generated from explosions, collisions, or faulty payload assembly.

Loading next visibility...
Identifier
18691, 1965-027AJ
Orbit
LEO
Country
Flag of USUS
Related business
Manufacturer
Unknown
Mission
Spacecraft
Bus & Motor
Unknown
Mass
Unknown
Launch date (UTC)
1965-04-03 (61 years ago)
Launch vehicle
Unknown
Launch site
Air Force Western Test Range (AFWTR)
Object type
Payload
Rocket body
Debris
Shape & HBR
Unknown shape, 0.1 m
Radar Cross Section
Medium (>0.1 m² and <1 m²)

Expand to show TLE details & history
Last TLE update: 22 hours ago

TLE from 22 hours ago
0 OPS 4682 DEB
1 18691U 65027AJ  26207.39187986  .00000106  00000-0  34368-3 0  9997
2 18691  90.2260 357.5574 0025031   7.6018  22.0569 12.96772544830175
Epoch: 2026-07-26T09:24Z
TLE epoch observation values (Epoch: 2026-07-26T09:24:18.419Z)
Latitude
29.812°
Longitude
-87.73866°
Altitude
1,260.736 km
Speed
7.236 km/s
True Right ascension
23h 49m 42s
True Declination
29° 40' 25"
Sunlit
Object was in daylight at epoch
Visualization orbit readout
Latitude
Unknown
Longitude
Unknown
Altitude
Unknown
Speed
Unknown
Apparent Right ascension
Unknown
Apparent Declination
Unknown
Sunlit
N/A
Visualization observer readout
Local Sidereal Time
21:06:11
Azimuth
Unknown
Elevation
Unknown
Doppler factor
Unknown
Orbital elements
Apogee altitude
1,291.039 km
Perigee altitude
1,252.741 km
Semi-major axis
7,650.027 km
Eccentricity
0.0025
Inclination
90.226°
RAAN
357.5574°
Arg. of periapsis
7.6018°
True anomaly
22.16493°
Mean anomaly
22.0569°
Eccentric anomaly
22.11088°
Mean motion
3.24376 °/min
Orbital period
110.98 mins
BSTAR
0.00034368
Loading maneuver chart data...
Computing Atmospheric mass density...
Loading historical data...
Loading historical data...
Loading historical data...
Loading historical data...
Loading historical data...
Loading historical data...
Loading historical data...

Documentation

Showing up to 5 results
|